Location: Makanda
(37.6176°N, 89.2090°W)
Time: 16:51:19
(UTC+00:00)

Cosmos 2266 Rocket - Pass Details

Date: 23 September 2019
Orbit: 934 x 1008 km, 82.9° (Epoch: 13 October)

Event Time Altitude Azimuth Distance (km) Brightness Sun altitude
Rises 10:54:24 0° 208° (SSW) 3,612 6.6 -10.9°
Reaches altitude 10° 10:57:06 10° 216° (SW) 2,661 5.9 -10.3°
Maximum altitude 11:02:39 37° 283° (WNW) 1,416 4.4 -9.3°
Drops below altitude 10° 11:08:13 10° 350° (N) 2,652 6.3 -8.2°
Sets 11:10:54 0° 358° (N) 3,598 7.0 -7.6°
